Location: Unspecified
(43.4354°N, 0.0000°E)
Time: 11:09:10
(UTC+00:00)

Explorer 11/Cluster Stage 4 - Visible Passes

Search period start: 05 August 2020 00:00
Search period end: 15 August 2020 00:00
Orbit: 467 x 1258 km, 28.8° (Epoch: 04 August)

Date Brightness Start Highest point End Pass type
(mag) Time Alt. Az. Time Alt. Az. Time Alt. Az.
05 Aug 8.1 03:24:11 17° SSW 03:25:02 18° S 03:28:35 10° SSE visible
06 Aug 8.2 03:14:05 18° SSW 03:14:06 18° SSW 03:17:52 10° SSE visible
07 Aug 8.3 03:04:06 18° S 03:04:06 18° S 03:07:04 10° SSE visible
08 Aug 8.5 02:54:16 16° S 02:54:16 16° S 02:56:15 10° SSE visible
09 Aug 8.8 02:44:36 12° SSE 02:44:36 12° SSE 02:45:21 10° SSE visible
10 Aug 9.2 20:51:08 10° S 20:52:14 12° S 20:52:14 12° S visible
11 Aug 8.9 20:39:24 10° S 20:42:50 15° SSE 20:42:50 15° SSE visible
12 Aug 8.8 20:27:51 10° SSW 20:32:24 16° SSE 20:33:14 16° SSE visible
12 Aug 9.2 22:14:04 10° SW 22:15:23 14° SW 22:15:23 14° SW visible
13 Aug 8.7 20:16:27 10° SSW 20:21:16 18° SSE 20:23:25 16° SE visible
13 Aug 8.9 22:02:55 10° SW 22:05:34 19° SSW 22:05:34 19° SSW visible
14 Aug 8.7 20:05:09 10° SSW 20:10:08 19° SSE 20:13:25 15° SE visible
14 Aug 8.7 21:51:49 10° SW 21:55:33 23° SSW 21:55:33 23° SSW visible
